TimeCDT,TemperatureF,Dew PointF,Humidity,Sea Level PressureIn,VisibilityMPH,Wind Direction,Wind SpeedMPH,Gust SpeedMPH,PrecipitationIn,Events,Conditions,WindDirDegrees,DateUTC
12:15 AM,68.9,57.4,67,29.98,10.0,ESE,5.8,-,N/A,,Clear,110,2013-09-15 05:15:00
12:35 AM,67.5,58.1,72,29.98,10.0,SSE,4.6,-,N/A,,Clear,150,2013-09-15 05:35:00
12:55 AM,66.4,57.2,72,29.98,10.0,Calm,Calm,-,N/A,,Clear,0,2013-09-15 05:55:00
1:15 AM,65.8,56.5,72,29.98,10.0,SE,3.5,-,N/A,,Clear,130,2013-09-15 06:15:00
1:35 AM,65.1,56.5,74,29.98,10.0,SSE,5.8,-,N/A,,Clear,150,2013-09-15 06:35:00
1:55 AM,64.8,56.3,74,29.98,10.0,Calm,Calm,-,N/A,,Clear,0,2013-09-15 06:55:00
2:15 AM,62.4,57.0,82,29.98,10.0,Calm,Calm,-,N/A,,Clear,0,2013-09-15 07:15:00
2:35 AM,63.0,56.5,79,29.98,10.0,Calm,Calm,-,N/A,,Clear,0,2013-09-15 07:35:00
2:55 AM,61.7,56.7,84,29.98,10.0,Calm,Calm,-,N/A,,Clear,0,2013-09-15 07:55:00
3:15 AM,62.6,56.5,80,29.98,10.0,ENE,3.5,-,N/A,,Clear,70,2013-09-15 08:15:00
3:35 AM,62.6,56.5,80,29.98,10.0,ENE,3.5,-,N/A,,Clear,70,2013-09-15 08:35:00
3:55 AM,61.2,56.7,85,29.98,10.0,Calm,Calm,-,N/A,,Clear,0,2013-09-15 08:55:00
4:15 AM,63.5,56.8,79,29.98,10.0,Calm,Calm,-,N/A,,Clear,0,2013-09-15 09:15:00
4:35 AM,62.6,57.2,82,29.98,10.0,Calm,Calm,-,N/A,,Clear,0,2013-09-15 09:35:00
4:55 AM,63.0,57.2,81,29.99,10.0,Calm,Calm,-,N/A,,Clear,0,2013-09-15 09:55:00
5:15 AM,62.8,57.2,82,29.99,10.0,Calm,Calm,-,N/A,,Clear,0,2013-09-15 10:15:00
5:35 AM,61.0,56.8,86,30.00,10.0,NE,3.5,-,N/A,,Clear,50,2013-09-15 10:35:00
5:55 AM,61.9,56.5,82,30.00,10.0,Calm,Calm,-,N/A,,Clear,0,2013-09-15 10:55:00
6:15 AM,61.5,56.5,83,30.01,10.0,Calm,Calm,-,N/A,,Clear,0,2013-09-15 11:15:00
6:35 AM,61.0,56.5,85,30.01,10.0,Calm,Calm,-,N/A,,Clear,0,2013-09-15 11:35:00
6:55 AM,59.9,56.3,88,30.01,10.0,Calm,Calm,-,N/A,,Clear,0,2013-09-15 11:55:00
7:15 AM,60.8,56.5,86,30.02,10.0,Calm,Calm,-,N/A,,Clear,0,2013-09-15 12:15:00
7:35 AM,60.8,57.0,87,30.03,10.0,Calm,Calm,-,N/A,,Clear,0,2013-09-15 12:35:00
7:55 AM,62.6,57.0,82,30.03,10.0,Calm,Calm,-,N/A,,Clear,0,2013-09-15 12:55:00
8:15 AM,63.7,57.7,81,30.03,10.0,Calm,Calm,-,N/A,,Clear,0,2013-09-15 13:15:00
8:35 AM,66.7,55.8,68,30.03,10.0,SSE,4.6,-,N/A,,Clear,150,2013-09-15 13:35:00
8:55 AM,69.1,53.8,58,30.03,10.0,SE,8.1,-,N/A,,Clear,140,2013-09-15 13:55:00
9:15 AM,70.9,53.8,55,30.04,10.0,South,9.2,-,N/A,,Clear,170,2013-09-15 14:15:00
9:35 AM,72.1,53.4,52,30.04,10.0,South,8.1,-,N/A,,Clear,180,2013-09-15 14:35:00
9:55 AM,72.5,53.1,50,30.04,10.0,South,12.7,-,N/A,,Clear,170,2013-09-15 14:55:00
10:15 AM,74.3,53.4,48,30.05,10.0,South,11.5,17.3,N/A,,Clear,180,2013-09-15 15:15:00
10:35 AM,75.7,54.0,47,30.04,10.0,South,11.5,-,N/A,,Clear,180,2013-09-15 15:35:00
10:55 AM,77.5,53.6,43,30.04,10.0,South,12.7,20.7,N/A,,Clear,170,2013-09-15 15:55:00
11:15 AM,78.6,54.5,43,30.04,10.0,South,11.5,-,N/A,,Clear,180,2013-09-15 16:15:00
11:35 AM,80.6,56.3,43,30.04,10.0,South,8.1,16.1,N/A,,Clear,170,2013-09-15 16:35:00
11:55 AM,82.9,57.4,42,30.03,10.0,South,11.5,16.1,N/A,,Clear,180,2013-09-15 16:55:00
12:15 PM,82.6,58.3,43,30.03,10.0,South,11.5,-,N/A,,Clear,190,2013-09-15 17:15:00
12:35 PM,83.7,58.5,42,30.03,10.0,SSE,9.2,-,N/A,,Clear,150,2013-09-15 17:35:00
12:55 PM,84.7,59.5,42,30.02,10.0,SSE,9.2,17.3,N/A,,Clear,160,2013-09-15 17:55:00
1:15 PM,86.2,60.6,42,30.02,10.0,South,5.8,17.3,N/A,,Clear,180,2013-09-15 18:15:00
1:35 PM,86.0,61.2,43,30.01,10.0,SSE,8.1,16.1,N/A,,Clear,160,2013-09-15 18:35:00
1:55 PM,86.5,61.9,43,30.01,10.0,SSE,6.9,19.6,N/A,,Clear,160,2013-09-15 18:55:00
2:15 PM,88.7,63.0,42,30.00,10.0,SSE,9.2,16.1,N/A,,Clear,150,2013-09-15 19:15:00
2:35 PM,89.2,63.9,43,29.99,10.0,SSW,6.9,20.7,N/A,,Clear,210,2013-09-15 19:35:00
2:55 PM,89.1,64.4,44,29.99,10.0,SSW,8.1,18.4,N/A,,Clear,200,2013-09-15 19:55:00
3:15 PM,90.7,65.7,43,29.99,10.0,SSW,8.1,-,N/A,,Clear,200,2013-09-15 20:15:00
3:35 PM,92.1,65.7,42,29.98,10.0,SW,10.4,-,N/A,,Clear,230,2013-09-15 20:35:00
3:55 PM,91.4,65.3,42,29.98,10.0,SW,8.1,-,N/A,,Clear,230,2013-09-15 20:55:00
4:15 PM,90.5,65.1,43,29.98,10.0,SSW,8.1,-,N/A,,Clear,210,2013-09-15 21:15:00
4:35 PM,89.8,65.5,44,29.97,10.0,WSW,5.8,-,N/A,,Clear,240,2013-09-15 21:35:00
4:55 PM,90.5,64.8,42,29.98,10.0,SSW,6.9,-,N/A,,Clear,210,2013-09-15 21:55:00
5:15 PM,89.4,64.8,44,29.97,10.0,WSW,5.8,-,N/A,,Clear,240,2013-09-15 22:15:00
5:35 PM,90.5,64.8,42,29.98,10.0,SSW,6.9,-,N/A,,Clear,200,2013-09-15 22:35:00
5:55 PM,89.8,64.6,43,29.98,10.0,SW,6.9,-,N/A,,Clear,230,2013-09-15 22:55:00
6:15 PM,89.2,64.9,44,29.98,10.0,SW,4.6,-,N/A,,Clear,220,2013-09-15 23:15:00
6:35 PM,89.4,64.6,44,29.98,10.0,WSW,3.5,-,N/A,,Clear,240,2013-09-15 23:35:00
6:55 PM,87.8,64.8,46,29.97,10.0,Calm,Calm,-,N/A,,Clear,0,2013-09-15 23:55:00
7:15 PM,85.8,65.7,51,29.97,10.0,Calm,Calm,-,N/A,,Clear,0,2013-09-16 00:15:00
7:35 PM,83.3,68.4,61,29.98,10.0,SSE,4.6,-,N/A,,Clear,160,2013-09-16 00:35:00
7:55 PM,80.8,68.5,66,29.98,10.0,SSE,3.5,-,N/A,,Clear,150,2013-09-16 00:55:00
8:15 PM,79.3,68.0,68,29.98,10.0,Calm,Calm,-,N/A,,Clear,0,2013-09-16 01:15:00
8:35 PM,78.8,67.6,68,29.99,10.0,Calm,Calm,-,N/A,,Clear,0,2013-09-16 01:35:00
8:55 PM,78.1,67.3,69,29.99,10.0,Calm,Calm,-,N/A,,Clear,0,2013-09-16 01:55:00
9:15 PM,77.9,67.6,71,30.00,10.0,Calm,Calm,-,N/A,,Clear,0,2013-09-16 02:15:00
9:35 PM,75.7,68.0,77,30.01,10.0,Calm,Calm,-,N/A,,Clear,0,2013-09-16 02:35:00
9:55 PM,74.5,68.2,81,30.01,10.0,Calm,Calm,-,N/A,,Clear,0,2013-09-16 02:55:00
10:15 PM,74.5,68.0,80,30.02,10.0,Calm,Calm,-,N/A,,Clear,0,2013-09-16 03:15:00
10:35 PM,75.6,68.0,77,30.02,10.0,Calm,Calm,-,N/A,,Clear,0,2013-09-16 03:35:00
10:55 PM,74.8,68.2,80,30.02,10.0,Calm,Calm,-,N/A,,Clear,0,2013-09-16 03:55:00
11:15 PM,73.4,68.2,84,30.03,10.0,Calm,Calm,-,N/A,,Clear,0,2013-09-16 04:15:00
11:35 PM,72.3,68.0,86,30.03,10.0,Calm,Calm,-,N/A,,Clear,0,2013-09-16 04:35:00
11:55 PM,72.5,68.0,86,30.03,10.0,Calm,Calm,-,N/A,,Clear,0,2013-09-16 04:55:00